Regional Weather Roundup
Issued by NWS

Home | Current Version | Previous Version | Graphics & Text | Print | Product List | Glossary On
Versions: 1 2 3 4 5 6 7 8 9 10 11 12 13 14 15 16 17 18 19 20 21 22 23 24 25 26 27 28 29 30 31 32 33 34 35 36 37 38 39 40 41 42 43 44 45 46 47 48 49 50
000
ASUS43 KLSX 281110
RWRMO

WEATHER SUMMARY FOR MISSOURI
NATIONAL WEATHER SERVICE SPRINGFIELD MO
600 AM CDT WED JUN 28 2017

NOTE: "FAIR" INDICATES FEW OR NO CLOUDS BELOW 12,000 FEET WITH NO
       SIGNIFICANT WEATHER AND/OR OBSTRUCTIONS TO VISIBILITY.
       CURRENT SKY AND/OR WEATHER CONDITIONS ARE NOT AVAILABLE FOR
       CHILLICOTHE AND FARMINGTON.

MOZ001>031-035>038-043-044-053-054-281200-
...NORTHERN AND WESTERN MISSOURI...

CITY           SKY/WX    TMP DP  RH WIND       PRES   REMARKS
KANSAS CTY INT CLOUDY    73  65  75 SW14G24   29.88R
KANSAS C DTWN  CLOUDY    74  65  73 S16G23    29.87R
LEE`S SUMMIT   MOCLDY    71  64  78 S16       29.91R
ST JOSEPH      CLOUDY    73  67  81 S5        29.86F
CHILLICOTHE      N/A     73  64  73 VRB6      29.92R
KIRKSVILLE     CLOUDY    71  63  75 S15G22    29.91R

$$
MOZ066>068-077>081-088>096-101>105-281200-
...SOUTHWEST MISSOURI...

CITY           SKY/WX    TMP DP  RH WIND       PRES   REMARKS
SPRINGFIELD    PTCLDY    66  63  90 S13       29.98R
JOPLIN         PTCLDY    70  64  81 S9        29.96R
BRANSON        CLEAR     63  61  94 CALM      30.02S

$$
MOZ032>034-039>042-045>050-055>058-069>072-281200-
...CENTRAL MISSOURI...

CITY           SKY/WX    TMP DP  RH WIND       PRES   REMARKS
COLUMBIA       PTCLDY    68  63  84 S15       29.95F
JEFFERSON CITY CLOUDY    69  62  78 SE6       29.96F
ROLLA          CLOUDY    65  62  90 S10       30.00S
SEDALIA        MOCLDY    70  65  84 S12       29.95R
WHITEMAN AFB   CLOUDY    70  70 100 SW14      29.92R
WARRENSBURG    CLOUDY    70  61  73 S9        29.92R
OSAGE BEACH    PTCLDY    66  63  90 S12       29.98S

$$
MOZ051-052-059>065-281200-
...EAST CENTRAL MISSOURI...

CITY           SKY/WX    TMP DP  RH WIND       PRES   REMARKS
ST LOUIS INTL  CLOUDY    69  58  67 S9        30.02R
SPIRIT OF STL  CLOUDY    66  61  84 S5        30.00R
ST CHARLES     CLOUDY    66  60  81 VRB3      30.00R

$$
MOZ072>076-082>087-097>100-106>115-281200-
...SOUTH CENTRAL AND SOUTHEAST MISSOURI...

CITY           SKY/WX    TMP DP  RH WIND       PRES   REMARKS
CAPE GIRARDEAU PTCLDY    62  56  80 SE3       30.05S
FARMINGTON     CLOUDY    60  58  92 CALM      30.05S
POPLAR BLUFF   CLEAR     63  63 100 CALM      30.05R FOG
WEST PLAINS    CLEAR     65  63  93 S7        30.06R

$$




USA.gov is the U.S. government's official web portal to all federal, state and local government web resources and services.